Wind_Speed
17 16 15 16 16 17 19 20 21 22 24 25 26 27 29 30 30 31 32 33 33 34 34 35 36 36 36 36 37 36 36 36 36 35 34 33 33 32 32 32 32 32 32
14 14 14 16 17 18 19 20 21 23 25 26 28 29 30 31 32 32 32 33 33 34 34 35 35 35 36 36 37 37 37 36 37 36 35 35 35 35 33 33 33 33 33
12 13 14 15 17 18 19 21 23 25 27 28 30 31 32 33 33 33 34 34 34 34 34 34 35 35 35 36 36 36 36 36 36 36 36 36 36 37 35 34 34 34 34
11 13 14 16 17 19 21 22 24 26 27 28 30 31 32 33 33 34 34 35 34 34 34 34 34 34 35 35 36 36 36 35 36 36 36 36 36 36 36 35 35 35 35
9 12 14 16 18 19 21 22 23 25 27 28 29 30 30 31 32 33 33 34 34 34 34 34 34 34 34 35 35 36 36 36 36 36 36 35 35 36 36 36 37 37 36
10 12 14 16 18 19 20 22 23 25 26 27 28 28 29 29 30 31 31 32 33 33 34 34 34 35 35 35 35 35 36 36 36 36 36 36 35 35 35 35 37 38 37
11 13 15 16 18 19 21 22 24 25 27 27 28 29 29 29 30 30 31 32 33 34 35 35 35 35 35 35 35 35 36 36 36 36 35 35 35 35 35 35 36 38 38
12 14 15 16 18 20 22 23 25 27 28 29 29 29 30 30 30 31 31 32 33 34 35 36 36 36 36 36 36 36 36 36 36 36 36 36 36 36 35 35 36 37 38
13 14 15 17 19 21 23 25 26 28 29 30 30 31 31 31 31 32 32 33 34 34 35 36 36 36 36 36 36 36 37 37 37 37 37 37 37 37 36 36 36 36 37
14 15 17 19 21 24 26 27 29 30 31 31 31 32 32 32 33 33 34 34 35 35 36 37 37 37 36 36 36 36 37 37 37 38 38 38 38 38 38 37 37 37 37
16 17 19 22 24 26 28 30 31 31 32 32 33 33 33 34 34 35 35 36 36 36 37 37 37 37 37 37 37 37 37 37 37 38 39 40 40 40 40 39 39 38 39
18 20 22 24 26 28 30 31 31 32 33 33 34 34 35 35 36 36 37 37 37 37 37 37 37 37 37 37 37 37 37 37 38 39 40 41 42 42 42 42 41 41 41
21 22 23 25 27 29 31 32 32 33 34 34 35 36 36 37 38 38 38 39 39 39 39 38 38 37 37 37 38 37 37 38 39 40 41 41 43 43 44 44 44 44 44
22 24 25 26 28 31 32 33 34 34 35 35 36 37 38 39 40 40 40 41 41 40 40 40 39 38 38 38 38 38 39 39 39 40 41 42 43 44 44 45 46 47 46
23 24 26 28 30 32 33 34 35 35 36 37 38 39 40 41 41 42 42 42 42 41 41 41 40 39 39 39 39 38 38 39 39 40 42 43 44 45 46 47 47 49 49
24 25 27 29 32 33 34 35 35 36 37 38 39 40 41 42 43 43 43 43 43 42 42 41 40 40 40 40 39 39 39 39 39 40 42 44 45 46 48 48 49 50 51
25 27 29 31 33 34 35 36 36 37 38 39 40 41 42 43 44 44 44 44 44 43 42 41 41 41 41 40 39 39 39 39 39 40 41 42 43 46 48 49 50 51 52
26 29 31 33 34 35 36 36 37 38 39 40 42 43 43 44 45 45 45 45 44 44 42 42 42 41 40 39 38 39 39 38 38 38 39 40 41 43 46 47 49 51 52
28 30 32 34 35 36 36 37 38 39 40 42 43 44 44 45 45 45 45 45 45 44 43 42 42 40 39 39 39 38 37 37 37 37 37 38 39 41 43 46 47 49 51
29 31 33 34 35 36 36 37 39 40 41 43 43 44 45 46 46 46 46 45 45 44 43 43 41 39 38 39 39 38 36 35 35 35 36 36 37 39 41 42 45 47 50
30 32 34 35 35 36 37 38 39 41 42 43 45 45 46 46 46 46 46 46 45 44 43 42 41 39 39 38 37 35 33 32 31 31 32 33 34 36 39 41 43 46 49
32 33 34 35 35 36 37 39 40 42 43 44 45 46 46 47 47 46 46 45 45 43 42 41 40 39 38 37 34 32 31 28 27 27 27 28 30 33 35 38 40 44 48
33 35 35 36 36 37 39 40 42 43 44 45 46 46 47 47 47 46 45 45 44 42 42 41 39 37 36 34 32 29 27 25 23 23 22 22 24 27 30 34 38 41 45
35 36 36 36 37 39 41 43 44 45 45 46 47 47 48 47 47 46 45 44 43 42 41 39 37 35 34 32 30 27 25 22 21 19 17 17 18 21 25 30 34 37 41
36 36 37 37 38 40 42 44 46 46 47 47 48 48 48 46 46 46 45 44 42 41 40 38 36 33 32 30 27 24 22 20 18 16 14 13 14 16 20 25 29 33 36
36 37 37 39 40 41 43 45 47 47 48 48 48 48 47 46 46 45 44 43 42 40 39 37 35 32 30 27 24 22 20 19 16 13 11 10 10 12 15 20 24 29 33
Wind_Direction
287 291 295 299 303 305 306 306 307 308 309 309 308 307 305 303 301 299 296 295 293 291 290 288 286 285 283 281 280 278 275 273 271 268 266 264 262 261 258 256 253 251 249
288 292 297 301 304 307 309 311 312 313 312 311 310 309 307 305 304 301 299 297 295 293 290 288 286 284 283 281 279 278 275 273 271 268 264 261 260 258 257 255 252 250 249
289 297 302 306 310 312 313 314 314 314 313 312 311 309 307 306 304 303 301 299 297 295 293 291 288 285 284 282 280 278 276 273 271 268 264 260 257 257 255 254 251 248 247
290 298 304 309 312 314 314 313 313 313 313 311 310 308 306 305 304 303 302 301 299 298 296 293 290 288 285 282 280 278 276 273 271 268 265 261 258 255 253 252 249 246 245
301 304 307 309 311 311 312 313 313 314 314 313 311 309 307 306 304 303 302 301 300 298 296 294 292 290 287 284 281 278 276 273 270 268 265 262 259 255 252 250 249 246 244
301 304 306 307 308 310 312 314 316 317 317 316 315 314 312 309 307 305 303 302 300 299 297 295 293 291 288 285 281 278 274 272 270 267 264 262 259 256 252 248 247 245 243
300 303 305 307 310 314 317 319 321 322 322 321 320 319 317 314 311 310 308 306 304 302 300 298 295 292 289 286 282 278 274 271 269 266 263 260 257 255 252 248 245 243 241
302 305 308 312 317 320 323 324 326 328 327 327 326 324 322 320 317 315 313 311 308 306 303 300 297 293 290 286 282 278 274 270 266 263 260 258 255 253 252 249 245 242 240
307 310 315 320 324 327 330 330 331 331 330 329 328 326 325 324 322 320 317 315 312 309 306 303 299 295 291 287 284 279 274 269 265 262 259 256 253 251 250 248 245 242 239
313 320 324 327 330 333 334 333 333 331 330 330 329 328 327 326 325 323 321 318 315 312 308 304 300 296 293 289 285 280 275 270 265 261 258 255 252 250 248 247 245 242 238
323 327 331 333 334 336 335 334 333 332 332 331 330 329 329 328 327 325 324 321 318 314 310 306 302 299 295 291 287 281 276 271 266 262 258 255 253 250 248 246 245 242 237
330 333 334 335 336 337 336 335 334 333 333 332 331 331 330 330 329 327 326 323 320 316 312 309 305 301 298 294 289 284 278 272 267 263 259 256 253 250 248 245 243 241 237
334 335 335 336 337 337 336 335 334 334 333 333 333 333 332 331 330 329 327 325 322 318 315 311 307 303 300 295 290 286 280 275 270 265 261 257 253 249 247 244 242 240 237
332 334 336 336 336 336 336 335 335 334 334 334 334 333 332 331 331 329 328 326 323 320 317 313 309 305 301 296 292 288 283 278 273 268 263 258 254 250 247 244 241 239 237
331 334 335 336 336 336 335 335 334 334 334 334 334 334 333 332 331 329 328 326 323 321 318 314 310 306 303 299 294 290 285 280 275 270 265 259 255 250 247 244 241 238 235
330 333 334 335 335 335 335 334 334 334 334 334 334 333 333 332 330 329 327 326 323 321 318 315 311 307 304 301 297 292 288 283 278 272 267 261 256 251 246 243 240 237 234
330 333 334 334 334 333 333 333 334 333 333 334 333 333 332 331 330 329 327 326 324 321 319 316 313 310 306 302 299 295 290 285 280 274 268 263 258 251 246 242 239 236 233
331 332 333 333 332 332 332 332 333 333 333 333 333 332 332 331 330 329 327 326 324 322 320 318 315 312 309 305 302 298 293 288 282 275 269 264 259 252 246 241 237 234 232
330 331 331 330 331 331 331 331 332 333 333 332 332 332 332 331 330 329 328 327 325 323 321 319 317 315 312 309 306 301 296 290 283 276 271 266 259 252 246 241 236 233 231
327 328 328 329 329 330 331 331 332 332 332 332 332 331 331 331 331 330 328 327 326 325 323 322 320 317 315 312 309 304 299 293 286 279 272 265 259 251 245 240 235 232 229
324 325 326 328 329 330 331 331 332 332 332 332 331 331 331 331 331 330 329 328 327 326 325 324 322 320 317 315 312 307 303 297 290 282 274 265 258 250 243 238 233 230 227
322 324 325 327 329 330 331 331 330 331 331 330 331 331 331 331 331 330 329 329 329 328 328 327 324 322 320 319 316 312 308 303 296 288 278 267 257 249 241 235 231 228 225
321 323 325 326 328 330 331 330 330 330 330 330 330 331 331 331 331 331 330 330 330 329 329 329 327 326 325 323 320 317 314 310 304 296 284 270 258 247 238 232 227 225 223
320 322 324 325 326 328 329 330 330 330 329 328 329 330 331 331 331 331 331 331 331 331 331 331 331 330 329 328 326 323 321 317 313 306 291 274 258 245 236 229 226 223 221
319 321 323 324 325 326 327 328 329 329 329 328 328 329 331 332 332 332 332 332 332 332 333 333 332 332 331 332 331 329 328 326 321 313 300 278 258 244 233 226 222 220 219
317 320 322 323 324 325 326 327 328 328 328 328 328 329 330 331 331 332 333 333 333 333 334 334 334 334 334 334 334 332 331 331 328 319 307 288 261 241 228 220 217 215 214
Height
5853 5853 5852 5851 5850 5849 5847 5846 5844 5842 5840 5838 5836 5833 5831 5829 5826 5824 5822 5820 5818 5816 5814 5813 5811 5810 5808 5807 5807 5806 5806 5806 5806 5808 5809 5810 5811 5812 5813 5814 5816 5818 5820
5849 5849 5849 5848 5847 5846 5844 5842 5840 5837 5835 5833 5830 5827 5825 5822 5819 5817 5814 5811 5809 5807 5805 5804 5802 5800 5799 5798 5797 5796 5796 5796 5796 5797 5799 5801 5802 5803 5804 5806 5808 5810 5812
5847 5847 5847 5846 5844 5842 5841 5838 5836 5833 5830 5827 5824 5821 5818 5815 5812 5809 5806 5803 5801 5799 5796 5795 5793 5791 5789 5788 5787 5786 5786 5786 5786 5786 5788 5790 5792 5793 5795 5797 5799 5801 5804
5846 5845 5845 5843 5841 5839 5837 5835 5832 5829 5826 5822 5819 5815 5812 5808 5805 5801 5798 5795 5792 5790 5787 5785 5783 5781 5780 5778 5777 5776 5775 5776 5776 5776 5777 5779 5781 5783 5786 5788 5789 5792 5795
5845 5844 5843 5841 5839 5837 5834 5832 5828 5825 5821 5818 5814 5810 5806 5802 5798 5794 5791 5787 5784 5781 5779 5776 5774 5772 5770 5769 5767 5766 5765 5765 5765 5766 5766 5768 5770 5772 5775 5778 5780 5782 5786
5843 5842 5841 5839 5837 5834 5831 5828 5824 5820 5816 5812 5808 5804 5799 5795 5791 5787 5784 5780 5776 5773 5770 5767 5765 5762 5760 5758 5757 5756 5755 5755 5755 5755 5756 5758 5759 5761 5764 5768 5770 5773 5776
5842 5841 5839 5837 5834 5831 5827 5824 5820 5815 5810 5806 5801 5797 5793 5788 5784 5780 5776 5772 5768 5764 5761 5758 5755 5752 5750 5748 5747 5746 5745 5744 5745 5745 5746 5747 5749 5751 5754 5757 5760 5763 5767
5840 5838 5836 5834 5830 5827 5823 5818 5814 5809 5804 5799 5795 5790 5786 5781 5777 5772 5768 5764 5759 5755 5751 5748 5745 5742 5740 5738 5736 5735 5734 5734 5734 5735 5736 5737 5739 5741 5744 5747 5750 5753 5757
5838 5835 5833 5829 5826 5822 5817 5813 5808 5803 5798 5793 5788 5784 5779 5774 5769 5765 5760 5755 5751 5746 5742 5738 5735 5731 5729 5727 5725 5724 5723 5723 5723 5724 5725 5727 5729 5731 5733 5736 5740 5743 5747
5834 5831 5828 5824 5820 5816 5811 5807 5802 5797 5792 5787 5782 5777 5772 5767 5762 5757 5752 5747 5742 5737 5733 5728 5724 5721 5718 5716 5714 5712 5711 5711 5712 5712 5714 5715 5717 5720 5723 5726 5729 5733 5737
5830 5826 5823 5819 5814 5810 5806 5801 5796 5791 5786 5781 5776 5771 5765 5760 5755 5749 5744 5738 5733 5728 5723 5718 5714 5710 5707 5704 5702 5701 5699 5699 5699 5700 5702 5703 5705 5708 5711 5715 5718 5722 5726
5824 5821 5817 5813 5809 5805 5800 5795 5791 5786 5781 5775 5770 5764 5759 5753 5747 5741 5736 5730 5724 5719 5713 5708 5704 5700 5696 5693 5690 5688 5687 5687 5687 5688 5689 5691 5693 5696 5699 5703 5707 5711 5715
5819 5816 5812 5808 5804 5800 5795 5790 5785 5780 5775 5769 5763 5757 5752 5746 5740 5733 5727 5721 5715 5709 5704 5698 5693 5689 5685 5681 5678 5676 5674 5673 5674 5674 5675 5677 5679 5682 5686 5690 5694 5699 5704
5814 5811 5807 5803 5799 5795 5790 5785 5780 5774 5769 5763 5757 5751 5745 5738 5732 5725 5719 5712 5706 5700 5694 5688 5682 5678 5673 5669 5666 5663 5661 5660 5659 5659 5661 5662 5665 5668 5671 5676 5681 5686 5691
5810 5807 5803 5799 5794 5789 5784 5779 5774 5768 5762 5756 5750 5744 5737 5731 5724 5717 5710 5703 5696 5690 5684 5677 5672 5666 5662 5657 5653 5650 5648 5646 5645 5644 5645 5647 5649 5652 5656 5661 5666 5672 5678
5806 5802 5798 5794 5789 5784 5779 5773 5768 5762 5756 5750 5743 5737 5730 5723 5716 5709 5702 5694 5687 5680 5673 5667 5661 5655 5650 5645 5640 5637 5634 5631 5630 5629 5629 5630 5633 5636 5640 5645 5651 5657 5663
5801 5797 5793 5788 5784 5778 5773 5767 5762 5756 5750 5743 5737 5730 5723 5715 5708 5700 5693 5685 5678 5671 5663 5656 5650 5644 5638 5632 5627 5623 5620 5617 5614 5613 5613 5613 5616 5619 5623 5628 5634 5641 5648
5796 5792 5788 5783 5778 5773 5767 5761 5756 5749 5743 5736 5730 5723 5715 5708 5700 5692 5684 5676 5669 5661 5653 5646 5639 5633 5626 5620 5615 5610 5606 5602 5599 5598 5597 5598 5600 5602 5607 5612 5618 5625 5633
5791 5787 5783 5778 5773 5767 5761 5755 5749 5743 5737 5730 5723 5715 5708 5700 5692 5684 5676 5668 5660 5651 5643 5636 5629 5622 5615 5608 5603 5597 5592 5588 5585 5583 5583 5583 5584 5587 5591 5597 5603 5610 5617
5786 5782 5777 5772 5767 5761 5755 5749 5743 5737 5730 5723 5716 5708 5700 5692 5684 5676 5668 5659 5651 5642 5634 5626 5618 5611 5605 5598 5591 5584 5579 5575 5572 5569 5568 5568 5570 5572 5576 5581 5588 5596 5603
5781 5776 5771 5766 5761 5755 5749 5743 5737 5731 5724 5716 5709 5701 5693 5685 5676 5668 5659 5651 5642 5634 5625 5617 5609 5601 5594 5587 5580 5573 5568 5563 5559 5556 5555 5555 5556 5558 5562 5567 5574 5581 5588
5775 5770 5765 5760 5755 5749 5743 5737 5731 5724 5717 5710 5702 5694 5686 5677 5669 5660 5651 5642 5634 5625 5617 5608 5600 5592 5584 5577 5570 5564 5558 5553 5548 5545 5543 5542 5543 5545 5549 5555 5561 5568 5575
5768 5764 5759 5754 5748 5743 5737 5731 5724 5717 5710 5702 5695 5687 5678 5669 5661 5652 5644 5635 5626 5618 5609 5600 5592 5584 5576 5569 5562 5556 5550 5545 5540 5537 5534 5533 5533 5535 5538 5543 5549 5556 5564
5761 5757 5752 5747 5741 5736 5730 5724 5717 5710 5703 5695 5687 5679 5671 5662 5653 5645 5636 5628 5619 5611 5602 5593 5585 5577 5570 5563 5556 5550 5544 5539 5534 5530 5527 5526 5526 5527 5530 5535 5540 5547 5554
5754 5749 5744 5739 5734 5729 5723 5717 5710 5703 5696 5688 5680 5672 5663 5655 5646 5638 5629 5621 5612 5604 5596 5587 5579 5572 5565 5558 5551 5545 5539 5534 5530 5526 5523 5522 5521 5522 5524 5528 5533 5539 5546
5746 5741 5736 5732 5727 5721 5715 5709 5702 5695 5688 5680 5672 5664 5656 5648 5640 5632 5623 5613 5606 5598 5590 5582 5574 5567 5560 5553 5547 5541 5536 5531 5527 5523 5520 5519 5518 5519 5520 5524 5528 5534 5540